Погода в Харитонове

Россия / Архангельская область     61˚24′07″N   47˚29′57″E
темп.,
°C
ветер,
м/с
пор.,
м/с
влажн.,
%
обл.,
%
осадки,
мм/ч
давл.,
гПа
погр.,
м
17 января, вс
вс1700:00−20˚ссв4129496 0.0 1007337
03:00−20˚с4119377 0.0 1007305
06:00−22˚с379561 0.0 1007180
09:00−23˚с249639 0.0 100994
12:00−20˚ссз23940 0.0 1010144
15:00−22˚зсз229620 0.0 101120
18:00−23˚з229713 0.0 101220
21:00−23˚юз229831 0.0 101354
18 января, пн
пн1800:00−20˚юз379498 0.0 1013241
03:00−18˚юз379699 0.3 1012319
06:00−17˚юз3696100 0.5 1012321
09:00−17˚юз2597100 0.8 1013194
12:00−16˚юз239596 0.1 1014218
15:00−17˚ююз129896 0.1 101535
18:00−19˚ю119899 0.1 101520
21:00−18˚ю229899 0.1 101642
19 января, вт
вт1900:00−19˚ю229997 0.1 101659
03:00−19˚ю229999 0.1 101647
06:00−19˚ю2399100 0.1 101597
09:00−19˚ю2698100 0.1 1015154
12:00−16˚ююз2595100 0.1 1014245
15:00−17˚ююз2397100 0.1 101459
18:00−17˚ююз2698100 0.1 1013189
21:00−17˚ююз249899 0.2 1013140
20 января, ср
ср2000:00−17˚ююз1298100 0.2 101249
03:00−16˚ююз1298100 0.3 101251
06:00−16˚юз129894 0.1 101151
09:00−16˚зюз129793 0.3 101144
12:00−14˚з249687 0.1 1011187
15:00−15˚з229891 0.1 101070
18:00−16˚зсз239890 0.1 101169
21:00−17˚зсз239893 0.1 101175
21 января, чт
чт2100:00−19˚зсз239991 0.0 101172
03:00−20˚зсз2310091 0.1 101282
06:00−20˚зсз239994 0.1 101282
09:00−20˚з129997 0.1 101234
12:00−17˚з119493 0.1 1012154
15:00−18˚вюв129895 0.1 101025
18:00−19˚в249897 0.1 1009134
21:00−18˚в369799 0.3 1007221